Regional Weather Roundup
Issued by NWS

Home | Current Version | Previous Version | Graphics & Text | Print | Product List | Glossary On
Versions: 1 2 3 4 5 6 7 8 9 10 11 12 13 14 15 16 17 18 19 20 21 22 23 24 25 26 27 28 29 30 31 32 33 34 35 36 37 38 39 40 41 42 43 44 45 46 47 48 49 50
000
ASUS43 KFSD 151702
RWRSD

WEATHER ROUNDUP FOR SOUTH DAKOTA
NATIONAL WEATHER SERVICE SIOUX FALLS SD
1100 AM CST FRI DEC 15 2017

NOTE: "FAIR" INDICATES FEW OR NO CLOUDS BELOW 12,000 FEET WITH NO
SIGNIFICANT WEATHER AND/OR OBSTRUCTIONS TO VISIBILITY.


SDZ001>005-009-010-012>017-151800-
NORTHWEST AND NORTH CENTRAL SOUTH DAKOTA

CITY           SKY/WX    TMP DP  RH WIND       PRES   REMARKS
BUFFALO          N/A     38  24  57 W21       29.67F
FAITH            N/A     36  27  69 SW10      29.74F
MOBRIDGE       CLOUDY    34  25  69 SW9       29.74S WCI  27
$$

SDZ012>016-024>037-041>051-057-063-072>074-151800-
SOUTHWEST AND SOUTH CENTRAL SOUTH DAKOTA

CITY           SKY/WX    TMP DP  RH WIND       PRES   REMARKS
RAPID CTY ARPT SUNNY     43  18  36 S6        29.82F
PIERRE         MOSUNNY   31  22  69 W16       29.80F WCI  20
CUSTER         CLOUDY    42   8  24 W13G23    29.84S
ELLSWORTH AFB  MOSUNNY   47  17  29 S8        29.80F
PHILIP         CLOUDY    34  25  69 VRB7G17   29.84S WCI  28
PINE RIDGE     SUNNY     41  20  43 W13       29.90R
SPEARFISH      FAIR      50  16  25 W18G24    29.80F
WINNER         FAIR      35  26  69 SW10      29.84F WCI  27
$$

SDZ004>011-016>023-039-040-151800-
NORTHEAST SOUTH DAKOTA

CITY           SKY/WX    TMP DP  RH WIND       PRES   REMARKS
ABERDEEN       PTSUNNY   32  27  81 SW8       29.80F WCI  25
WATERTOWN      CLOUDY    30  28  92 SW9       29.80F WCI  22
BROOKINGS      CLOUDY    33  26  75 W12       29.84S WCI  24
SISSETON         N/A     27  26  96 S12       29.81F WCI  17
$$

SDZ017-020-022-023-036>040-048>070-151800-
SOUTHEAST SOUTH DAKOTA

CITY           SKY/WX    TMP DP  RH WIND       PRES   REMARKS
SIOUX FALLS    PTSUNNY   36  26  67 W10       29.87F
HURON          CLOUDY    36  26  67 SW8       29.84F
CHAMBERLAIN    MOSUNNY   34  28  79 S6        29.85F WCI  29
MITCHELL       CLOUDY    36  25  64 SW10      29.88S
YANKTON        PTSUNNY   36  24  62 SW13      29.91S
$$

ABBREVIATIONS USED IN REMARKS
   TC - TEMPERATURE IN CELSIUS
  WCI - WIND CHILL INDEX
   HX - HEAT INDEX
  VSB - VISIBILITY





USA.gov is the U.S. government's official web portal to all federal, state and local government web resources and services.